Time,TemperatureF,DewpointF,PressureIn,WindDirection,WindDirectionDegrees,WindSpeedMPH,WindSpeedGustMPH,Humidity,HourlyPrecipIn,Conditions,Clouds,dailyrainin,SoftwareType,DateUTC
2013-07-11 00:12:00,81.0,75.0,30.01,North,2,4.0,8.0,83,0.00,,,0.02,,2013-07-11 04:12:00,
2013-07-11 00:22:00,81.0,76.0,30.02,North,2,1.0,8.0,84,0.00,,,0.02,,2013-07-11 04:22:00,
2013-07-11 00:32:00,81.0,76.0,30.01,North,2,1.0,8.0,84,0.00,,,0.02,,2013-07-11 04:32:00,
2013-07-11 00:42:00,81.0,76.0,30.01,North,7,3.0,6.0,84,0.00,,,0.02,,2013-07-11 04:42:00,
2013-07-11 01:22:00,81.0,76.0,30.01,NNE,27,2.0,8.0,84,0.00,,,0.02,,2013-07-11 05:22:00,
2013-07-11 01:32:00,81.0,76.0,30.00,North,2,3.0,7.0,84,0.00,,,0.02,,2013-07-11 05:32:00,
2013-07-11 01:43:00,81.0,76.0,30.00,NE,42,3.0,8.0,85,0.00,,,0.02,,2013-07-11 05:43:00,
2013-07-11 01:52:00,81.0,76.0,29.99,North,2,1.0,7.0,85,0.00,,,0.02,,2013-07-11 05:52:00,
2013-07-11 02:01:00,81.0,76.0,29.99,North,2,1.0,5.0,84,0.00,,,0.02,,2013-07-11 06:01:00,
2013-07-11 02:12:00,81.0,76.0,29.99,North,2,0.0,4.0,84,0.00,,,0.02,,2013-07-11 06:12:00,
2013-07-11 02:22:00,81.0,76.0,29.99,North,2,0.0,5.0,84,0.00,,,0.02,,2013-07-11 06:22:00,
2013-07-11 02:32:00,81.0,76.0,29.99,North,2,0.0,5.0,84,0.00,,,0.02,,2013-07-11 06:32:00,
2013-07-11 02:43:00,81.0,76.0,29.98,North,2,1.0,4.0,85,0.00,,,0.02,,2013-07-11 06:43:00,
2013-07-11 02:52:00,81.0,76.0,29.98,North,2,0.0,2.0,84,0.00,,,0.02,,2013-07-11 06:52:00,
2013-07-11 03:02:00,81.0,76.0,29.98,North,2,0.0,2.0,84,0.00,,,0.02,,2013-07-11 07:02:00,
2013-07-11 03:12:00,80.0,75.0,29.98,North,2,0.0,2.0,84,0.00,,,0.02,,2013-07-11 07:12:00,
2013-07-11 03:22:00,80.0,75.0,29.98,North,2,2.0,5.0,85,0.00,,,0.02,,2013-07-11 07:22:00,
2013-07-11 03:32:00,80.0,75.0,29.97,North,2,0.0,5.0,85,0.00,,,0.02,,2013-07-11 07:32:00,
2013-07-11 03:45:00,80.0,75.0,29.97,North,2,1.0,4.0,84,0.00,,,0.02,,2013-07-11 07:45:00,
2013-07-11 03:53:00,80.0,75.0,29.97,North,2,0.0,1.0,84,0.00,,,0.02,,2013-07-11 07:53:00,
2013-07-11 04:02:00,80.0,75.0,29.97,North,2,0.0,3.0,84,0.00,,,0.02,,2013-07-11 08:02:00,
2013-07-11 04:12:00,80.0,75.0,29.97,North,2,0.0,3.0,85,0.00,,,0.02,,2013-07-11 08:12:00,
2013-07-11 04:22:00,80.0,75.0,29.97,North,2,0.0,3.0,85,0.00,,,0.02,,2013-07-11 08:22:00,
2013-07-11 04:34:00,80.0,75.0,29.96,North,2,0.0,0.0,85,0.00,,,0.01,,2013-07-11 08:34:00,
2013-07-11 04:43:00,80.0,75.0,29.97,North,2,0.0,2.0,86,0.00,,,0.01,,2013-07-11 08:43:00,
2013-07-11 04:53:00,80.0,75.0,29.97,North,2,0.0,2.0,86,0.00,,,0.01,,2013-07-11 08:53:00,
2013-07-11 05:03:00,80.0,75.0,29.97,North,2,0.0,2.0,86,0.00,,,0.01,,2013-07-11 09:03:00,
2013-07-11 05:12:00,80.0,75.0,29.97,North,2,0.0,2.0,86,0.00,,,0.01,,2013-07-11 09:12:00,
2013-07-11 05:21:00,80.0,75.0,29.97,North,2,0.0,2.0,86,0.00,,,0.01,,2013-07-11 09:21:00,